TimeCDT,TemperatureF,Dew PointF,Humidity,Sea Level PressureIn,VisibilityMPH,Wind Direction,Wind SpeedMPH,Gust SpeedMPH,PrecipitationIn,Events,Conditions,WindDirDegrees,DateUTC
12:13 AM,32.0,28.4,87,29.84,10.0,NNW,8.1,-,N/A,,Overcast,340,2013-04-07 05:13:00
12:34 AM,32.0,28.4,87,29.84,7.0,NNW,11.5,-,N/A,,Overcast,330,2013-04-07 05:34:00
12:54 AM,32.0,28.4,87,29.85,10.0,NW,9.2,-,N/A,,Overcast,320,2013-04-07 05:54:00
1:14 AM,32.0,28.4,87,29.85,10.0,NNW,9.2,-,N/A,,Overcast,330,2013-04-07 06:14:00
1:34 AM,32.0,28.4,87,29.85,10.0,NW,8.1,-,N/A,,Overcast,320,2013-04-07 06:34:00
1:54 AM,32.0,28.4,87,29.85,10.0,NNW,12.7,-,N/A,,Overcast,340,2013-04-07 06:54:00
2:14 AM,32.0,28.4,87,29.85,10.0,NNW,13.8,-,N/A,,Overcast,340,2013-04-07 07:14:00
2:34 AM,32.0,28.4,87,29.85,10.0,North,17.3,-,N/A,,Overcast,360,2013-04-07 07:34:00
2:53 AM,30.2,28.4,93,29.85,10.0,North,13.8,-,N/A,,Overcast,350,2013-04-07 07:53:00
3:14 AM,30.2,26.6,86,29.85,10.0,North,13.8,17.3,N/A,,Overcast,350,2013-04-07 08:14:00
3:34 AM,30.2,28.4,93,29.85,10.0,North,9.2,-,N/A,,Overcast,360,2013-04-07 08:34:00
3:53 AM,30.2,26.6,86,29.86,10.0,North,11.5,-,N/A,,Overcast,350,2013-04-07 08:53:00
4:14 AM,30.2,26.6,86,29.87,10.0,NNW,8.1,-,N/A,,Overcast,330,2013-04-07 09:14:00
4:34 AM,30.2,26.6,86,29.87,10.0,NW,5.8,-,N/A,,Overcast,320,2013-04-07 09:34:00
4:53 AM,30.2,26.6,86,29.87,10.0,NNW,6.9,-,N/A,,Overcast,330,2013-04-07 09:53:00
5:14 AM,30.2,26.6,86,29.88,10.0,North,6.9,-,N/A,,Overcast,350,2013-04-07 10:14:00
5:33 AM,30.2,26.6,86,29.88,10.0,NNW,6.9,-,N/A,,Overcast,330,2013-04-07 10:33:00
5:54 AM,30.2,26.6,86,29.88,10.0,NW,5.8,-,N/A,,Overcast,310,2013-04-07 10:54:00
6:14 AM,30.2,26.6,86,29.88,10.0,WNW,5.8,-,N/A,,Overcast,300,2013-04-07 11:14:00
6:33 AM,30.2,26.6,86,29.88,10.0,West,4.6,-,N/A,,Overcast,280,2013-04-07 11:33:00
6:54 AM,30.2,26.6,86,29.89,10.0,West,3.5,-,N/A,,Overcast,260,2013-04-07 11:54:00
7:14 AM,30.2,26.6,86,29.89,10.0,Calm,Calm,-,N/A,,Overcast,0,2013-04-07 12:14:00
7:33 AM,30.2,26.6,86,29.89,10.0,NW,3.5,-,N/A,,Overcast,310,2013-04-07 12:33:00
7:54 AM,30.2,26.6,86,29.90,10.0,NW,3.5,-,N/A,,Overcast,320,2013-04-07 12:54:00
8:14 AM,30.2,26.6,86,29.90,10.0,NW,3.5,-,N/A,,Overcast,310,2013-04-07 13:14:00
8:34 AM,32.0,26.6,80,29.90,10.0,Calm,Calm,-,N/A,,Overcast,0,2013-04-07 13:34:00
8:54 AM,32.0,26.6,80,29.91,10.0,Calm,Calm,-,N/A,,Overcast,0,2013-04-07 13:54:00
9:13 AM,32.0,26.6,80,29.90,10.0,Calm,Calm,-,N/A,,Overcast,0,2013-04-07 14:13:00
9:34 AM,32.0,26.6,80,29.90,10.0,Calm,Calm,-,N/A,,Overcast,0,2013-04-07 14:34:00
9:54 AM,33.8,26.6,75,29.90,10.0,Calm,Calm,-,N/A,,Overcast,0,2013-04-07 14:54:00
10:13 AM,33.8,26.6,75,29.90,10.0,Calm,Calm,-,N/A,,Overcast,0,2013-04-07 15:13:00
10:34 AM,33.8,26.6,75,29.90,10.0,Calm,Calm,-,N/A,,Overcast,0,2013-04-07 15:34:00
10:53 AM,33.8,28.4,81,29.90,10.0,Calm,Calm,-,N/A,,Overcast,0,2013-04-07 15:53:00
11:14 AM,33.8,26.6,75,29.90,10.0,SE,4.6,-,N/A,,Overcast,130,2013-04-07 16:14:00
11:34 AM,33.8,28.4,81,29.89,10.0,SE,4.6,-,N/A,,Overcast,140,2013-04-07 16:34:00
11:53 AM,35.6,28.4,75,29.89,10.0,SE,4.6,-,N/A,,Overcast,130,2013-04-07 16:53:00
12:14 PM,35.6,28.4,75,29.89,10.0,SSE,5.8,-,N/A,,Overcast,160,2013-04-07 17:14:00
12:33 PM,35.6,28.4,75,29.88,10.0,ESE,4.6,-,N/A,,Overcast,120,2013-04-07 17:33:00
12:54 PM,35.6,28.4,75,29.87,10.0,ESE,5.8,-,N/A,,Overcast,110,2013-04-07 17:54:00
1:13 PM,35.6,28.4,75,29.86,10.0,ESE,9.2,-,N/A,,Overcast,110,2013-04-07 18:13:00
1:34 PM,35.6,28.4,75,29.84,10.0,East,8.1,-,N/A,,Overcast,90,2013-04-07 18:34:00
1:53 PM,37.4,30.2,75,29.84,10.0,ESE,11.5,-,N/A,,Overcast,120,2013-04-07 18:53:00
2:14 PM,37.4,30.2,75,29.83,10.0,ESE,8.1,-,N/A,,Overcast,110,2013-04-07 19:14:00
2:33 PM,37.4,30.2,75,29.82,10.0,ESE,8.1,-,N/A,,Overcast,120,2013-04-07 19:33:00
2:54 PM,37.4,30.2,75,29.81,10.0,ESE,9.2,-,N/A,,Overcast,120,2013-04-07 19:54:00
3:14 PM,37.4,30.2,75,29.82,10.0,SE,8.1,-,N/A,,Overcast,140,2013-04-07 20:14:00
3:33 PM,37.4,30.2,75,29.80,10.0,SE,9.2,-,N/A,,Overcast,140,2013-04-07 20:33:00
3:54 PM,37.4,30.2,75,29.79,10.0,SSE,10.4,-,N/A,,Overcast,150,2013-04-07 20:54:00
4:13 PM,37.4,30.2,75,29.79,10.0,SSE,8.1,-,N/A,,Overcast,150,2013-04-07 21:13:00
4:34 PM,37.4,32.0,81,29.78,10.0,SE,11.5,-,N/A,,Overcast,140,2013-04-07 21:34:00
4:53 PM,37.4,33.8,87,29.78,10.0,SE,10.4,-,N/A,,Overcast,140,2013-04-07 21:53:00
5:14 PM,39.2,33.8,81,29.77,7.0,SE,6.9,10.4,N/A,,Light Drizzle,140,2013-04-07 22:14:00
5:34 PM,39.2,33.8,81,29.78,7.0,South,9.2,-,N/A,,Light Drizzle,170,2013-04-07 22:34:00
5:54 PM,39.2,33.8,81,29.78,7.0,SSE,6.9,-,N/A,,Drizzle,160,2013-04-07 22:54:00
6:14 PM,39.2,33.8,81,29.78,5.0,SSE,4.6,-,N/A,,Drizzle,150,2013-04-07 23:14:00
6:33 PM,39.2,35.6,87,29.76,5.0,ESE,5.8,-,N/A,Rain,Light Rain,120,2013-04-07 23:33:00
6:54 PM,39.2,35.6,87,29.76,5.0,ESE,4.6,-,0.01,Rain,Light Rain,120,2013-04-07 23:54:00
7:14 PM,39.2,35.6,87,29.75,3.0,ESE,3.5,-,0.02,Rain,Light Rain,110,2013-04-08 00:14:00
7:33 PM,39.2,35.6,87,29.75,4.0,ESE,3.5,-,0.03,Rain,Light Rain,110,2013-04-08 00:33:00
7:54 PM,39.2,35.6,87,29.75,3.0,East,4.6,-,0.05,Rain,Light Rain,90,2013-04-08 00:54:00
8:14 PM,39.2,35.6,87,29.74,3.0,East,6.9,-,0.01,Rain,Light Rain,100,2013-04-08 01:14:00
8:33 PM,39.2,37.4,93,29.74,2.5,East,4.6,-,0.02,,Drizzle,80,2013-04-08 01:33:00
8:54 PM,37.4,35.6,93,29.74,1.8,ENE,3.5,-,0.02,,Drizzle,60,2013-04-08 01:54:00
9:14 PM,37.4,35.6,93,29.74,1.5,ENE,4.6,-,N/A,,Drizzle,60,2013-04-08 02:14:00
9:34 PM,37.4,35.6,93,29.73,1.5,ENE,4.6,-,N/A,Rain,Rain,70,2013-04-08 02:34:00
9:53 PM,37.4,35.6,93,29.74,1.5,ENE,3.5,-,0.01,Rain,Light Rain,70,2013-04-08 02:53:00
10:14 PM,37.4,35.6,93,29.73,1.5,ENE,3.5,-,0.01,,Drizzle,70,2013-04-08 03:14:00
10:34 PM,37.4,37.4,100,29.73,1.2,ENE,3.5,-,N/A,,Drizzle,70,2013-04-08 03:34:00
10:51 PM,37.4,35.6,93,29.72,1.0,East,6.9,-,0.01,,Light Drizzle,100,2013-04-08 03:51:00
11:14 PM,39.2,37.4,93,29.71,1.5,East,8.1,-,N/A,,Overcast,90,2013-04-08 04:14:00
11:34 PM,37.4,37.4,100,29.71,1.5,ENE,5.8,-,N/A,,Overcast,70,2013-04-08 04:34:00
11:54 PM,37.4,37.4,100,29.72,1.5,NE,3.5,-,N/A,,Overcast,40,2013-04-08 04:54:00